GW4866 Weather Reports


Display with metric or nautical units.
time (UTC)temp
F
wind
direction
speed
MPH
gust
MPH
rain 1hr
in
rain 24hr
in
rain mn
in
humidity
%
barometer
mb
20260505112004 41 194 0.0 1.0 0.00 0.03 0.00 82 1010.9
20260505111504 41 301 0.0 1.0 0.00 0.03 0.00 83 1010.9
20260505111004 41 307 0.0 1.0 0.00 0.03 0.00 84 1011.2
20260505110504 41 295 0.0 1.0 0.00 0.03 0.00 86 1011.2
20260505102004 41 0 0.0 0.0 0.00 0.03 0.00 90 1011.0
20260505101504 40 0 0.0 0.0 0.00 0.03 0.00 90 1011.0
20260505101004 40 0 0.0 0.0 0.00 0.03 0.00 89 1010.8
20260505100504 40 0 0.0 0.0 0.00 0.03 0.00 89 1010.9
20260505100004 40 0 0.0 0.0 0.00 0.03 0.00 89 1010.8
20260505095504 41 0 0.0 0.0 0.00 0.03 0.00 89 1010.7
20260505095004 41 0 0.0 0.0 0.00 0.03 0.00 88 1010.8
20260505094504 41 0 0.0 0.0 0.00 0.03 0.00 88 1010.7
20260505094004 41 0 0.0 0.0 0.00 0.03 0.00 88 1010.7
20260505093504 41 0 0.0 0.0 0.00 0.03 0.00 88 1010.5
20260505092504 41 0 0.0 0.0 0.00 0.03 0.00 88 1010.3
20260505092004 41 0 0.0 0.0 0.00 0.03 0.00 88 1010.4
20260505091504 41 305 0.0 1.0 0.00 0.03 0.00 88 1010.6
20260505091004 41 294 0.0 2.0 0.00 0.03 0.00 88 1010.5
20260505090504 42 291 0.0 2.0 0.00 0.03 0.00 88 1010.4
20260505090004 42 292 0.0 2.0 0.00 0.03 0.00 89 1010.3
20260505085004 42 0 0.0 0.0 0.00 0.03 0.00 91 1011.3
20260505084504 42 0 0.0 0.0 0.00 0.03 0.00 91 1011.5
20260505084004 42 0 0.0 0.0 0.00 0.03 0.00 91 1011.6
20260505083004 42 0 0.0 0.0 0.00 0.03 0.00 92 1011.5
20260505082504 42 0 0.0 0.0 0.00 0.03 0.00 92 1011.6
20260505082004 42 0 0.0 0.0 0.00 0.03 0.00 91 1011.8
20260505081504 42 0 0.0 0.0 0.00 0.03 0.00 91 1011.8
20260505081004 42 0 0.0 0.0 0.00 0.03 0.00 91 1011.6
20260505080504 42 0 0.0 0.0 0.00 0.03 0.00 91 1011.7
20260505080004 42 0 0.0 0.0 0.00 0.03 0.00 91 1011.7
20260505075504 42 0 0.0 0.0 0.00 0.03 0.00 92 1011.8
20260505075003 42 0 0.0 0.0 0.00 0.03 0.00 91 1011.8
20260505074504 42 0 0.0 0.0 0.00 0.03 0.00 91 1011.8
20260505074004 42 0 0.0 0.0 0.00 0.03 0.00 91 1011.9
20260505073504 42 0 0.0 0.0 0.00 0.03 0.00 91 1011.9
20260505072504 42 0 0.0 0.0 0.00 0.03 0.00 91 1012.0
20260505072004 42 0 0.0 0.0 0.00 0.03 0.00 91 1012.0
20260505071504 42 0 0.0 0.0 0.00 0.03 0.00 90 1011.9
20260505071004 42 215 0.0 1.0 0.00 0.03 0.00 90 1011.9
20260505070510 42 215 0.0 1.0 0.00 0.03 0.00 90 1012.0
20260505070005 42 215 0.0 1.0 0.00 0.03 0.00 90 1012.1
20260505065503 42 216 0.0 1.0 0.00 0.03 0.00 90 1012.1
20260505065004 42 217 0.0 1.0 0.00 0.03 0.00 90 1012.0
20260505064503 43 217 0.0 1.0 0.01 0.03 0.00 89 1012.0
20260505063004 43 0 0.0 0.0 0.01 0.03 0.00 89 1012.2
20260505062503 43 168 0.0 1.0 0.01 0.03 0.00 88 1012.0
20260505062004 43 153 0.0 2.0 0.01 0.03 0.00 88 1011.8
20260505061504 43 152 0.0 2.0 0.01 0.03 0.00 88 1011.9
20260505061004 43 210 0.0 1.0 0.01 0.03 0.00 87 1011.9
20260505060504 43 209 0.0 1.0 0.01 0.03 0.00 86 1012.0
20260505060009 43 0 0.0 0.0 0.01 0.03 0.00 86 1012.3
20260505055504 43 198 0.0 2.0 0.01 0.03 0.03 85 1012.3
20260505055005 44 198 0.0 2.0 0.01 0.03 0.03 84 1012.2
20260505054504 44 0 0.0 0.0 0.00 0.02 0.02 83 1012.2
20260505054004 44 141 0.0 2.0 0.00 0.02 0.02 82 1012.2
20260505053504 44 162 0.0 3.0 0.00 0.02 0.02 81 1012.2
20260505053004 44 169 0.0 3.0 0.00 0.02 0.02 79 1012.0
20260505052503 44 0 0.0 0.0 0.00 0.02 0.02 79 1012.2
20260505052004 45 0 0.0 0.0 0.00 0.02 0.02 78 1012.3
20260505051505 45 0 0.0 0.0 0.00 0.02 0.02 77 1012.1
20260505050504 45 0 0.0 0.0 0.00 0.02 0.02 76 1012.1
20260505041005 45 199 1.0 5.0 0.00 0.02 0.02 77 1011.1
20260505040504 45 202 1.0 5.0 0.00 0.02 0.02 77 1011.2
20260505040005 45 187 1.0 5.0 0.00 0.02 0.02 78 1011.3
20260505035004 45 165 2.0 5.0 0.00 0.02 0.02 77 1011.1
20260505034004 45 187 1.0 6.0 0.00 0.02 0.02 77 1011.4
20260505033503 45 193 0.0 5.0 0.00 0.02 0.02 77 1011.4
20260505033004 45 195 0.0 2.0 0.00 0.02 0.02 77 1011.4
20260505032504 45 187 0.0 2.0 0.00 0.02 0.02 77 1011.3
20260505032004 45 193 1.0 7.0 0.00 0.02 0.02 77 1011.1
20260505031504 46 191 3.0 7.0 0.00 0.02 0.02 76 1011.0
20260505031005 46 196 2.0 7.0 0.00 0.02 0.02 76 1010.9
20260505030504 45 205 2.0 5.0 0.00 0.02 0.02 77 1010.9
20260505030004 45 198 2.0 8.0 0.00 0.02 0.02 77 1011.0
20260505025505 45 190 1.0 8.0 0.00 0.02 0.02 77 1011.0
20260505024004 45 212 0.0 4.0 0.01 0.02 0.02 80 1011.1
20260505023504 45 214 0.0 4.0 0.01 0.02 0.02 80 1011.0
20260505022503 45 185 0.0 3.0 0.02 0.02 0.02 80 1010.9
20260505021503 45 201 0.0 2.0 0.02 0.02 0.02 79 1010.7
20260505021004 45 173 0.0 3.0 0.02 0.02 0.02 79 1010.8
20260505020504 45 148 1.0 3.0 0.02 0.02 0.02 78 1011.0
20260505020004 45 157 2.0 5.0 0.02 0.02 0.02 78 1010.9
20260505015505 46 164 4.0 9.0 0.02 0.02 0.02 77 1011.2
20260505014504 48 183 2.0 9.0 0.02 0.02 0.02 71 1011.2
20260505013504 50 183 1.0 9.0 0.01 0.01 0.01 61 1011.0
20260505012504 51 182 1.0 5.0 0.00 0.00 0.00 60 1011.0
20260505012004 52 163 2.0 7.0 0.00 0.00 0.00 59 1011.2
20260505011504 52 169 1.0 7.0 0.00 0.00 0.00 54 1011.1
20260505010004 54 159 1.0 4.0 0.00 0.00 0.00 45 1010.2
20260505005504 54 168 0.0 4.0 0.00 0.00 0.00 44 1010.5
20260505005004 54 170 0.0 3.0 0.00 0.00 0.00 43 1010.2
20260505004504 55 173 2.0 8.0 0.00 0.00 0.00 43 1009.8
20260505004003 55 174 2.0 10.0 0.00 0.00 0.00 42 1009.8
20260505003503 55 181 3.0 10.0 0.00 0.00 0.00 41 1009.6
20260505003004 56 182 4.0 8.0 0.00 0.00 0.00 40 1009.4
20260505002504 56 186 4.0 11.0 0.00 0.00 0.00 39 1009.2
20260505002004 56 184 4.0 11.0 0.00 0.00 0.00 38 1009.0
20260505001504 57 171 5.0 12.0 0.00 0.00 0.00 37 1008.8
20260505001004 58 165 5.0 12.0 0.00 0.00 0.00 37 1008.9
20260505000504 58 165 4.0 11.0 0.00 0.00 0.00 36 1008.7
20260504235504 60 185 3.0 11.0 0.00 0.00 0.00 33 1008.8
20260504235004 61 186 3.0 10.0 0.00 0.00 0.00 33 1008.8
20260504234505 61 191 2.0 8.0 0.00 0.00 0.00 33 1008.7
20260504234004 61 185 3.0 8.0 0.00 0.00 0.00 33 1008.9
20260504233504 61 181 4.0 9.0 0.00 0.00 0.00 34 1008.8
20260504233004 62 170 4.0 9.0 0.00 0.00 0.00 33 1008.8
20260504232504 62 160 3.0 8.0 0.00 0.00 0.00 32 1008.9
20260504232003 63 176 1.0 6.0 0.00 0.00 0.00 31 1008.7
20260504231504 63 183 1.0 4.0 0.00 0.00 0.00 32 1008.7
20260504231004 62 150 1.0 4.0 0.00 0.00 0.00 33 1008.8
20260504230504 62 141 1.0 4.0 0.00 0.00 0.00 33 1008.6
20260504225003 61 93 1.0 5.0 0.00 0.00 0.00 34 1009.1
20260504224504 61 67 2.0 8.0 0.00 0.00 0.00 33 1009.1
20260504224003 60 62 3.0 12.0 0.00 0.00 0.00 35 1009.4
20260504223504 61 71 3.0 12.0 0.00 0.00 0.00 33 1009.0
20260504223004 61 80 3.0 9.0 0.00 0.00 0.00 33 1009.2
20260504222504 61 73 4.0 8.0 0.00 0.00 0.00 33 1009.2
20260504222004 61 72 4.0 10.0 0.00 0.00 0.00 33 1009.2
20260504221004 62 59 1.0 7.0 0.00 0.00 0.00 31 1009.1
20260504220503 62 73 0.0 5.0 0.00 0.00 0.00 29 1009.2
20260504215004 61 172 3.0 10.0 0.00 0.00 0.00 30 1008.9
20260504214503 61 191 2.0 9.0 0.00 0.00 0.00 30 1009.0
20260504214004 62 171 3.0 9.0 0.00 0.00 0.00 30 1009.0
20260504213504 62 140 2.0 8.0 0.00 0.00 0.00 30 1008.9
20260504213004 63 160 1.0 7.0 0.00 0.00 0.00 27 1008.9
20260504212504 64 177 1.0 6.0 0.00 0.00 0.00 24 1008.5
20260504212003 64 182 2.0 9.0 0.00 0.00 0.00 25 1008.7
20260504211504 65 174 3.0 9.0 0.00 0.00 0.00 23 1008.4
20260504211003 66 167 2.0 6.0 0.00 0.00 0.00 23 1008.4
20260504210504 67 158 2.0 6.0 0.00 0.00 0.00 23 1008.4
20260504210004 67 137 1.0 5.0 0.00 0.00 0.00 23 1008.4
20260504205504 67 133 1.0 4.0 0.00 0.00 0.00 24 1008.5
20260504205004 68 144 0.0 3.0 0.00 0.00 0.00 22 1008.6
20260504204504 67 106 1.0 5.0 0.00 0.00 0.00 22 1008.5
20260504204003 66 109 1.0 5.0 0.00 0.00 0.00 23 1008.7
20260504203003 67 95 1.0 4.0 0.00 0.00 0.00 21 1008.9
20260504202504 66 93 2.0 6.0 0.00 0.00 0.00 23 1008.9
20260504202004 66 96 2.0 6.0 0.00 0.00 0.00 22 1009.1
20260504201504 66 100 1.0 4.0 0.00 0.00 0.00 24 1009.1
20260504201004 66 105 4.0 9.0 0.00 0.00 0.00 23 1009.2
20260504200004 66 110 4.0 9.0 0.00 0.00 0.00 23 1009.3
20260504195503 66 105 4.0 10.0 0.00 0.00 0.00 23 1009.3
20260504195004 66 98 3.0 10.0 0.00 0.00 0.00 23 1009.3
20260504194504 67 84 1.0 8.0 0.00 0.00 0.00 21 1009.3
20260504194004 67 66 1.0 5.0 0.00 0.00 0.00 19 1009.2
20260504193504 67 70 1.0 6.0 0.00 0.00 0.00 18 1009.2
20260504193004 68 81 1.0 6.0 0.00 0.00 0.00 17 1009.2
20260504192504 70 87 0.0 3.0 0.00 0.00 0.00 18 1009.3
20260504192003 71 179 0.0 3.0 0.00 0.00 0.00 16 1009.2
20260504191504 71 133 1.0 5.0 0.00 0.00 0.00 17 1009.4
20260504190504 73 100 3.0 5.0 0.00 0.00 0.00 15 1009.4
20260504190004 72 89 3.0 17.0 0.00 0.00 0.00 18 1009.4
20260504185504 72 105 2.0 17.0 0.00 0.00 0.00 18 1009.6
20260504185003 72 121 2.0 8.0 0.00 0.00 0.00 17 1009.6
20260504184003 72 123 1.0 4.0 0.00 0.00 0.00 17 1009.8
20260504183503 71 139 1.0 4.0 0.00 0.00 0.00 16 1009.8
20260504183005 70 70 3.0 9.0 0.00 0.00 0.00 18 1010.1
20260504182504 69 70 3.0 12.0 0.00 0.00 0.00 17 1010.1
20260504182004 69 86 3.0 12.0 0.00 0.00 0.00 17 1010.2
20260504181503 70 88 3.0 9.0 0.00 0.00 0.00 18 1010.4
20260504181004 69 67 2.0 9.0 0.00 0.00 0.00 18 1010.3
20260504180005 69 95 1.0 4.0 0.00 0.00 0.00 20 1010.6
20260504175503 68 100 2.0 7.0 0.00 0.00 0.00 20 1010.6
20260504175004 67 97 2.0 7.0 0.00 0.00 0.00 20 1010.7
20260504174504 66 92 3.0 7.0 0.00 0.00 0.00 21 1010.9
20260504174003 64 95 3.0 11.0 0.00 0.00 0.00 24 1010.9
20260504173504 64 95 3.0 11.0 0.00 0.00 0.00 24 1011.1
20260504172504 65 105 2.0 6.0 0.00 0.00 0.00 24 1011.1
20260504172003 65 110 3.0 7.0 0.00 0.00 0.00 24 1011.3
20260504171504 66 112 4.0 8.0 0.00 0.00 0.00 25 1011.5
20260504171004 66 109 4.0 8.0 0.00 0.00 0.00 25 1011.6
20260504170503 66 97 3.0 8.0 0.00 0.00 0.00 26 1011.7
20260504151004 58 116 1.0 5.0 0.00 0.00 0.00 34 1012.4
20260504141003 54 169 0.0 2.0 0.00 0.00 0.00 38 1012.4
20260504130504 49 216 0.0 4.0 0.00 0.00 0.00 40 1011.9